Wind_Speed
10 11 12 12 12 12 12 12 12 12 13 13 13 13 13 14 14 13 12 12 11 11 11 11 11 12 12 12 12 12 12 13 15 15 16 18 20 22 23 26 29 32 34 36 38 40 40 39 39 39 40 43 44 44 42 41 39 36 35 38 40 42 42 39 34 32 30 28 24 22 24 25 26 23 19 20 22 22 18 16 19 17 16 23 24 20 16 15
10 11 12 12 12 12 12 12 13 13 14 15 15 15 15 15 14 13 13 12 12 11 10 10 10 11 12 11 11 11 11 12 12 12 13 15 15 16 18 20 23 25 28 31 33 37 38 39 37 36 37 39 42 43 42 41 39 39 40 42 45 46 44 41 36 32 30 28 27 25 24 24 24 25 23 20 21 24 19 17 19 15 12 20 23 22 19 18
10 12 13 13 13 13 13 13 14 15 16 17 18 18 18 17 16 15 14 14 13 13 12 11 10 11 12 11 12 12 12 12 12 11 12 12 11 12 13 15 17 19 22 24 27 31 34 36 37 38 38 38 39 39 40 41 41 41 43 45 47 47 44 41 37 33 31 28 29 31 28 26 25 26 26 23 18 20 20 19 18 15 13 17 18 19 19 19
11 12 13 14 14 14 14 15 16 17 18 19 20 21 21 20 19 17 16 16 15 15 14 13 12 12 13 13 13 12 13 14 13 12 12 12 11 11 11 12 13 13 16 18 21 24 28 31 33 36 38 40 38 36 38 41 42 43 45 49 49 45 42 41 38 36 34 29 29 33 33 30 28 28 27 24 23 21 21 21 21 22 22 23 23 22 23 23
12 13 14 14 15 15 16 17 18 19 20 21 22 23 23 23 23 21 18 17 17 17 16 15 14 13 14 15 15 14 15 16 15 14 13 12 11 11 12 12 12 12 12 13 16 19 22 25 27 31 35 38 37 35 38 41 40 41 45 50 49 45 41 37 36 36 35 32 31 33 37 35 30 30 26 23 26 24 22 22 23 24 26 30 31 26 26 26
13 13 15 15 16 16 17 19 20 21 22 23 23 23 24 24 24 24 23 21 19 18 17 16 15 15 15 15 16 17 16 15 16 15 14 13 13 14 15 14 14 13 12 12 13 14 18 20 23 28 32 35 35 36 36 35 35 38 44 49 49 47 42 36 35 34 35 37 36 34 37 38 36 35 28 27 29 22 18 20 24 27 26 24 26 27 25 24
14 14 15 16 17 17 18 20 21 22 22 22 23 23 23 23 24 24 24 24 23 21 20 18 17 16 16 15 16 17 17 18 19 16 17 17 16 16 16 16 16 16 15 14 13 13 15 18 22 25 30 33 34 35 32 28 31 36 43 46 46 46 44 40 36 32 33 37 39 37 35 39 41 38 30 30 32 23 15 15 21 27 28 23 22 24 24 21
14 14 15 16 17 18 19 20 21 21 21 21 22 22 23 23 23 23 24 24 24 24 22 21 20 18 17 17 17 17 18 21 20 16 18 19 17 16 17 17 17 17 16 16 15 15 15 17 20 21 26 31 32 31 29 26 29 36 43 44 42 41 41 42 41 35 33 34 37 38 38 42 43 40 34 32 31 29 20 16 23 27 28 27 20 18 19 18
14 14 15 16 17 18 19 20 21 21 22 22 22 23 23 23 24 24 24 23 24 24 23 24 24 22 21 20 20 19 19 21 21 18 18 19 17 15 17 17 17 17 16 16 16 16 15 15 17 18 19 24 27 29 29 27 31 36 38 40 39 37 34 37 42 42 40 37 35 34 39 45 45 41 39 34 32 35 28 21 28 31 29 27 19 15 14 14
14 15 15 16 17 19 19 20 21 22 23 23 23 23 23 24 24 24 24 23 23 24 24 25 25 25 24 24 24 21 17 19 21 19 17 17 17 15 16 17 17 18 17 17 17 17 16 16 16 19 20 22 25 27 28 30 32 33 32 34 35 34 33 33 37 40 42 42 40 36 37 41 41 42 44 38 36 39 36 28 28 31 29 28 25 21 22 20
15 16 17 17 18 19 20 22 23 24 24 24 24 24 24 24 24 24 24 23 23 23 24 25 25 26 25 27 27 19 16 20 21 18 17 18 16 15 16 17 17 18 18 18 17 18 17 18 18 21 22 22 25 27 29 32 31 31 29 30 31 31 34 36 37 38 39 42 44 43 40 39 38 41 45 41 40 39 38 33 26 28 30 29 27 23 24 25
16 17 18 19 20 21 22 23 24 25 25 25 25 25 24 24 24 24 24 23 23 24 24 24 25 25 25 28 24 16 17 21 20 18 18 18 16 16 17 18 17 17 18 18 18 18 19 20 20 23 21 19 23 25 28 33 30 30 31 31 30 30 34 38 39 38 38 40 41 42 42 45 43 41 40 38 39 38 36 35 28 27 31 30 26 22 22 24
17 18 19 20 21 22 24 25 26 27 27 27 26 25 24 24 24 23 23 23 23 24 24 23 24 24 26 27 17 13 18 18 19 20 18 17 17 18 18 18 18 17 18 18 18 18 20 21 22 25 24 21 23 24 27 31 29 30 31 30 29 31 36 38 38 39 40 39 36 36 41 50 52 47 41 35 36 37 35 39 36 29 29 30 27 22 24 28
18 19 21 22 23 24 26 27 28 28 28 27 26 24 23 23 23 22 22 22 23 23 23 22 22 23 27 25 16 16 19 17 18 20 18 17 18 18 18 18 18 18 18 18 17 18 20 22 23 26 27 27 26 25 27 28 27 28 27 29 29 32 38 37 35 39 43 42 35 34 41 51 55 53 49 41 35 34 35 40 40 34 34 37 36 28 26 28
19 21 22 23 24 26 28 29 29 29 28 25 23 22 22 22 21 21 22 21 22 22 21 21 21 23 26 22 16 16 16 15 17 17 18 19 18 18 18 18 20 19 19 18 18 19 20 21 23 25 27 28 28 27 27 26 27 27 25 30 34 34 37 35 34 38 42 43 38 37 44 47 48 49 49 47 44 38 35 39 37 33 35 37 36 32 27 25
20 22 23 24 25 28 29 30 29 28 26 22 20 21 22 21 20 21 21 20 21 20 20 19 19 22 24 19 14 15 15 15 15 16 18 18 17 17 18 19 21 21 20 19 18 18 19 20 22 23 25 26 27 29 28 25 28 30 29 33 35 34 35 34 36 36 37 41 41 45 49 43 39 40 41 44 49 47 40 40 36 31 33 30 25 29 29 25
21 23 24 25 27 29 30 30 29 27 23 20 19 20 21 21 20 20 20 21 21 18 16 16 17 19 17 15 13 12 13 12 13 17 18 16 15 14 16 19 20 20 20 19 18 18 19 20 20 20 23 24 26 26 24 25 30 33 35 34 31 32 34 33 36 36 35 38 44 50 52 45 37 34 35 40 45 49 50 48 42 33 33 34 26 27 33 32
22 24 25 27 28 30 31 30 28 25 21 20 20 20 21 20 19 19 20 21 19 16 14 13 15 14 9 10 12 11 10 7 9 17 18 14 14 14 15 19 21 20 18 17 18 19 19 19 18 18 20 23 25 25 26 32 36 35 33 30 26 28 34 35 35 36 36 38 42 46 52 52 44 32 29 36 41 44 52 56 51 41 35 38 34 31 35 38
23 25 26 28 29 30 31 30 27 24 22 20 19 19 21 20 20 20 21 21 19 17 16 14 16 15 10 11 14 16 15 8 8 14 16 13 15 17 17 17 19 20 17 15 19 20 19 18 18 20 22 25 28 30 34 38 35 30 28 25 24 26 33 37 36 35 37 40 43 45 47 49 49 41 29 30 38 40 42 48 52 48 42 42 42 41 41 40
24 25 27 28 29 30 30 29 26 24 22 20 17 18 20 21 20 21 22 22 21 19 17 16 20 21 17 14 12 13 15 11 10 13 14 13 15 18 21 20 17 17 20 19 19 19 18 20 22 25 27 27 28 29 33 35 30 26 25 26 28 29 31 34 36 36 37 39 44 45 44 42 44 48 41 32 34 38 40 40 44 48 48 48 49 51 51 47
25 26 27 29 30 30 30 27 24 23 22 20 18 18 20 21 20 20 24 24 20 21 22 20 20 23 23 19 12 12 17 17 17 18 16 13 16 23 27 26 21 18 22 22 18 17 18 23 27 29 28 26 25 26 28 31 31 30 29 29 32 32 32 32 33 36 38 40 41 41 42 44 42 44 48 44 37 36 39 40 41 44 46 45 48 52 54 52
25 26 28 30 30 30 29 26 23 22 21 19 19 19 19 20 18 20 26 27 19 17 22 21 20 20 16 12 7 9 15 16 15 16 15 15 21 27 26 21 19 18 18 18 19 20 22 27 30 28 27 24 23 24 25 27 31 34 35 33 34 33 30 31 34 34 37 41 40 38 40 46 46 43 44 49 47 43 41 41 39 40 43 43 43 47 50 53
25 27 29 30 30 30 28 25 22 21 20 19 18 18 18 18 19 19 23 29 25 15 15 15 14 10 3 3 4 5 11 14 15 11 11 17 22 26 24 19 19 20 18 18 21 24 26 30 30 27 25 24 24 24 25 26 29 35 39 38 37 34 27 27 35 36 36 40 40 36 37 43 46 45 44 43 45 49 47 45 41 37 41 44 44 45 49 54
26 28 29 30 30 30 28 24 21 20 19 19 19 19 19 19 21 22 22 29 26 14 8 7 5 6 3 4 6 8 10 12 14 11 10 16 20 24 25 21 21 24 23 21 22 25 28 29 28 25 24 25 27 26 26 29 32 35 41 43 39 35 31 27 29 36 35 35 40 37 31 39 48 46 46 44 43 48 48 47 45 41 40 39 39 46 52 55
27 28 29 29 29 29 28 22 19 19 19 19 20 21 21 20 21 23 25 27 19 8 6 6 2 3 5 8 8 9 12 14 17 14 13 17 20 24 24 21 22 26 26 24 24 26 28 27 24 24 24 26 29 30 29 30 33 34 39 47 42 34 35 31 23 31 36 31 38 41 25 26 45 49 43 42 42 47 46 44 45 45 46 41 34 44 55 55
27 29 29 29 29 29 27 21 18 19 19 20 20 20 21 21 21 24 23 19 11 7 5 4 4 4 5 6 8 10 14 17 18 14 14 19 21 24 24 23 24 26 25 24 25 27 30 28 26 26 27 28 30 33 32 30 34 36 36 43 45 38 36 36 29 27 34 32 33 41 29 14 30 48 45 40 42 45 44 42 43 43 47 47 38 42 54 53
27 29 29 29 29 28 24 20 18 18 19 20 20 20 22 21 22 22 17 8 4 5 3 5 6 8 7 9 14 16 15 14 16 15 12 16 20 24 28 26 24 25 23 20 23 28 30 28 26 26 29 31 31 32 33 32 34 37 33 33 42 46 40 39 38 29 30 36 32 37 39 20 21 41 45 41 42 43 44 43 43 42 42 46 44 45 51 51
27 28 30 29 28 26 21 18 18 18 18 18 19 20 22 22 20 16 9 2 2 3 5 8 9 11 12 13 18 22 19 16 18 18 13 14 19 23 27 28 27 27 22 20 25 28 26 24 23 24 26 31 32 31 31 32 36 37 30 26 37 48 46 42 39 34 30 29 29 37 42 24 18 35 40 39 42 42 44 46 45 44 41 42 45 47 51 50
27 28 29 28 26 23 20 19 19 19 18 17 18 20 21 20 16 10 4 0 2 5 8 11 13 14 17 22 26 23 18 18 18 17 13 15 19 20 22 22 23 24 23 23 28 28 23 22 22 23 26 30 31 29 28 31 36 35 28 26 32 40 47 45 37 36 33 22 22 37 43 25 13 28 39 39 44 43 41 45 47 45 41 41 45 49 51 48
27 28 28 27 24 21 19 19 19 18 18 19 19 21 20 17 11 5 1 2 6 10 12 13 16 20 25 30 30 21 17 18 17 15 13 14 19 21 20 18 18 21 23 25 30 32 27 24 24 25 27 29 29 28 28 31 33 33 30 28 29 36 45 42 36 35 25 16 22 36 47 34 12 21 40 42 42 42 41 44 45 44 42 41 45 50 49 45
26 28 27 24 22 21 21 22 21 20 21 21 21 20 18 13 8 2 1 6 12 12 11 14 21 27 31 33 28 21 20 20 16 15 16 16 18 20 18 18 19 20 22 25 29 31 28 26 26 28 29 30 29 27 28 30 32 34 34 31 27 31 36 31 31 30 13 9 28 38 44 38 19 22 40 43 40 38 40 45 45 44 45 44 46 48 46 42
25 28 26 22 20 20 21 21 20 20 21 22 21 18 14 9 5 2 6 11 12 10 15 22 29 31 31 29 23 19 21 20 13 14 17 16 17 21 21 20 21 19 19 23 24 25 28 30 30 29 29 31 30 28 27 29 35 38 37 33 22 16 18 14 14 15 10 15 31 36 34 32 29 31 32 33 38 38 38 44 46 44 46 48 49 49 45 41
25 27 25 21 20 20 21 20 19 19 20 21 19 17 13 6 3 6 11 13 11 15 24 29 31 29 25 23 19 14 16 15 9 11 14 13 15 20 21 20 22 19 17 18 19 21 23 27 32 32 32 34 33 30 29 30 35 39 39 35 21 8 7 8 7 8 11 20 31 34 27 23 28 34 33 29 31 34 37 42 45 45 45 48 51 49 43 41
25 27 24 21 20 21 22 20 19 20 20 20 20 18 10 3 6 9 13 17 18 23 28 29 30 27 20 17 15 13 12 9 5 10 13 12 14 19 21 22 24 23 20 18 18 19 17 16 23 29 31 34 37 35 32 29 30 35 39 36 27 19 11 7 7 7 6 11 22 29 23 19 21 24 31 31 26 28 35 40 43 44 45 46 48 46 41 41
25 26 23 20 22 23 23 22 21 22 21 20 21 17 9 7 11 14 18 21 24 27 29 31 29 24 19 14 11 12 11 6 4 10 12 13 15 17 17 19 22 24 22 19 15 14 15 18 19 21 27 32 34 35 34 30 26 29 36 36 33 30 22 13 12 13 8 5 14 22 19 20 24 19 18 21 24 29 33 39 42 44 47 47 46 45 41 41
26 25 21 20 24 25 24 24 23 22 22 20 20 18 14 14 16 18 23 25 25 28 32 33 25 19 17 12 10 12 9 6 6 9 10 10 14 16 15 15 18 22 23 21 16 10 11 18 16 14 23 31 31 31 32 32 27 23 26 33 38 36 27 20 15 16 13 5 10 20 15 15 26 27 23 21 24 30 33 40 44 45 48 48 47 46 43 43
25 24 20 20 26 26 25 25 22 22 22 21 21 20 17 18 20 22 27 27 26 28 30 29 22 15 12 9 11 12 7 6 7 7 8 8 9 12 14 15 15 18 21 22 20 17 15 19 18 14 20 27 28 25 28 34 33 23 17 24 35 35 30 23 11 7 9 4 8 19 14 16 23 24 29 32 29 30 36 42 46 46 48 48 47 46 44 45
24 22 19 21 26 27 26 25 21 20 21 22 23 21 20 24 26 27 29 29 28 28 27 23 18 14 11 12 15 12 4 6 9 7 8 8 7 6 9 13 12 14 19 20 18 18 15 15 15 14 19 23 24 23 27 33 34 27 21 19 20 22 24 24 12 4 6 3 4 13 14 19 26 23 29 36 34 33 37 43 47 47 47 48 48 47 45 45
23 19 17 21 26 28 29 26 22 20 23 25 23 21 24 29 28 27 28 29 27 25 22 19 17 16 15 16 17 12 4 6 10 8 6 7 7 5 5 9 12 14 16 18 17 15 13 10 8 7 16 20 20 23 28 33 33 30 25 22 21 17 17 20 17 8 5 3 3 8 8 11 22 28 28 30 33 34 36 43 47 47 47 49 49 47 46 46
23 19 18 21 25 27 29 26 21 20 25 26 24 23 27 30 28 27 27 26 25 23 21 20 19 17 16 15 12 9 7 8 9 8 7 7 7 6 3 8 13 13 12 14 16 13 12 11 8 5 13 18 21 28 33 33 31 28 28 25 20 18 17 14 17 16 7 2 2 4 4 10 21 27 25 24 27 29 32 41 46 45 46 47 46 45 45 45
21 18 17 19 23 26 28 25 21 21 24 26 26 27 28 30 28 27 26 24 26 27 24 21 18 16 15 13 9 7 8 9 9 9 8 7 8 8 4 8 11 11 12 14 16 14 10 10 11 7 11 20 27 35 35 31 26 22 23 21 14 17 19 9 8 19 17 7 5 5 4 15 25 26 25 24 22 24 31 41 43 41 42 43 43 43 43 44
18 16 16 18 22 25 25 22 20 21 23 23 24 25 26 27 28 29 27 27 29 30 26 20 18 17 15 12 9 8 9 9 9 8 7 7 9 7 4 5 9 11 13 13 13 13 10 11 15 13 9 16 23 29 31 28 23 16 17 19 16 18 23 14 5 15 20 13 12 11 5 13 26 29 29 27 22 25 35 39 37 36 38 39 40 41 41 43
16 14 16 18 21 23 23 20 18 19 21 20 22 24 24 25 29 29 29 30 30 28 24 20 18 17 15 14 12 9 10 10 6 5 7 8 7 4 4 5 6 9 11 11 10 8 7 9 12 10 5 10 15 20 25 22 18 19 23 25 24 24 26 24 15 14 18 16 13 8 3 12 25 28 29 30 27 30 36 37 34 35 38 40 40 42 43 43
15 12 16 19 19 20 20 19 20 21 22 22 24 25 24 26 29 28 28 31 30 26 22 18 15 13 13 15 13 9 9 9 5 4 6 8 7 4 4 6 6 6 9 11 9 7 6 5 7 4 2 2 6 10 16 19 21 25 27 28 28 25 25 29 27 18 15 19 17 7 3 11 18 21 28 33 32 33 37 37 33 32 36 42 43 43 43 43
16 13 17 21 20 18 17 15 18 22 23 25 27 27 27 29 29 27 29 32 30 26 24 18 13 12 11 13 13 10 8 10 9 6 6 9 9 3 5 5 6 7 10 11 9 10 8 5 5 4 1 2 4 8 15 21 23 24 25 26 23 22 24 24 23 15 11 20 22 11 9 12 12 20 31 35 34 34 33 32 28 27 33 41 44 43 42 42
19 15 18 20 16 17 19 16 16 19 22 25 26 27 29 32 32 30 32 33 30 29 27 19 15 15 12 11 13 12 9 10 12 10 7 8 7 4 6 3 3 5 10 11 10 10 9 7 8 11 12 9 6 9 17 21 20 19 20 21 17 20 24 21 17 14 10 13 17 14 17 19 15 22 30 30 32 31 29 29 28 29 35 41 43 42 40 40
19 18 20 19 13 14 15 11 10 14 18 21 23 26 30 33 33 32 33 32 32 31 27 23 22 20 13 9 11 13 10 9 12 12 9 8 5 6 6 3 1 3 9 10 9 10 11 11 12 13 13 12 10 9 14 17 18 17 17 19 18 18 20 18 17 20 13 7 7 12 23 27 21 24 28 26 26 26 27 32 32 32 39 42 41 41 39 39
19 18 18 18 16 15 13 10 11 15 16 17 20 23 28 32 32 33 35 34 32 29 26 27 29 23 12 9 12 13 11 8 9 9 7 6 5 4 5 1 4 3 7 7 7 11 14 13 12 10 11 12 11 10 12 13 18 20 19 20 20 19 19 19 18 21 14 5 2 7 20 29 24 24 29 27 25 26 27 31 32 32 37 40 40 41 41 39
18 17 16 16 17 16 14 12 15 17 17 18 20 22 26 31 30 30 34 34 30 28 28 29 29 21 11 9 10 8 7 6 5 6 6 5 2 1 1 3 4 1 5 7 8 11 12 11 11 10 11 14 13 12 11 14 20 23 22 21 20 20 25 25 13 10 8 6 6 7 20 31 25 23 28 26 24 29 29 28 29 30 35 41 42 41 40 39
19 18 16 15 15 14 12 10 12 15 16 16 19 22 25 28 26 28 32 31 29 31 31 27 24 19 13 12 10 6 6 6 5 5 6 5 3 3 2 4 6 1 3 6 9 10 10 10 10 10 10 14 15 13 12 16 21 22 23 24 25 25 29 20 5 7 8 9 7 7 17 25 22 22 26 23 21 27 31 30 27 27 32 40 42 42 41 39
20 20 19 17 15 14 12 9 10 13 14 14 18 23 25 25 25 29 29 25 27 32 30 25 23 21 17 13 9 7 7 6 4 5 7 6 4 4 5 2 6 2 2 4 8 9 9 10 9 8 9 11 13 10 10 17 19 22 26 26 27 26 19 7 8 8 13 11 5 6 12 16 18 22 23 18 16 24 35 35 30 29 30 33 35 37 37 35
19 19 20 19 16 15 13 11 11 11 11 13 17 22 24 23 24 27 26 22 26 30 29 27 25 22 19 15 11 8 7 6 5 6 6 5 4 4 6 2 6 4 3 5 7 8 9 10 9 9 8 9 9 9 10 11 10 18 26 25 23 18 8 7 8 10 13 11 5 5 9 10 14 20 20 16 14 22 32 34 33 33 31 30 31 31 32 31
Wind_Direction
322 323 324 327 329 332 333 332 331 329 328 327 325 323 322 321 316 311 305 299 296 293 291 287 281 277 275 272 267 264 262 261 258 256 254 250 249 250 248 246 245 244 243 241 238 237 237 236 236 237 237 236 236 234 231 229 226 220 216 219 225 227 229 229 227 227 228 232 232 233 233 243 254 249 257 261 249 238 222 228 232 229 233 228 229 232 234 244
317 320 324 327 329 331 332 331 331 329 329 329 327 326 326 326 322 313 303 299 295 289 286 282 277 273 270 267 264 259 258 257 256 257 258 255 253 251 249 247 244 243 242 241 239 237 236 234 231 231 233 234 235 234 231 229 225 220 218 220 225 228 230 230 228 228 228 230 226 226 232 236 240 240 256 264 246 240 232 219 229 242 233 216 219 228 233 234
313 318 324 327 328 329 329 329 328 327 327 327 327 325 325 325 323 315 304 297 292 288 284 277 274 272 270 266 261 258 257 255 253 252 255 257 256 252 250 249 247 244 240 239 239 236 236 234 231 228 228 229 231 232 231 229 226 223 221 221 226 230 231 231 228 228 227 229 228 226 231 240 243 241 255 266 251 238 227 217 231 249 237 220 227 234 228 224
310 315 321 325 327 326 326 325 324 324 324 324 324 323 323 322 321 316 304 295 291 288 283 280 277 277 277 273 267 265 264 262 258 254 254 254 253 254 252 250 251 249 244 239 237 236 234 233 232 230 227 227 227 227 228 228 227 226 224 224 228 229 230 232 229 228 226 226 230 230 236 244 244 241 250 259 257 244 224 224 235 241 250 247 244 243 236 236
310 312 316 321 323 323 323 322 321 322 322 322 322 322 322 321 320 316 307 297 288 285 285 283 279 279 281 279 277 274 275 275 266 254 251 252 253 254 250 248 251 253 251 244 239 236 233 229 227 227 226 226 223 221 226 227 227 228 228 230 231 228 229 231 230 231 227 224 228 230 237 242 241 241 248 256 257 250 235 237 235 233 252 253 239 234 237 243
312 311 313 317 319 321 321 320 320 320 320 319 317 317 317 316 315 312 309 301 290 283 280 280 279 279 279 280 282 279 280 280 269 260 257 257 256 255 252 250 249 251 251 247 242 236 232 225 220 221 221 222 220 220 223 224 224 228 231 233 233 229 228 228 228 232 230 228 227 225 232 237 243 245 247 261 258 251 248 243 235 233 243 251 238 227 230 233
315 314 314 315 316 317 316 316 316 315 315 313 311 311 310 309 307 303 303 300 296 288 279 275 274 273 275 278 281 282 282 275 270 271 268 264 263 262 260 255 251 251 249 247 244 238 231 221 214 214 216 217 217 218 218 219 220 226 232 233 233 232 229 227 224 225 231 232 228 228 234 236 243 245 248 265 255 242 252 240 234 236 236 250 253 228 218 219
318 317 316 315 314 313 312 311 311 311 310 308 307 306 305 304 301 298 295 295 296 293 286 278 272 270 271 272 274 279 282 278 278 277 270 267 265 263 261 257 253 250 248 246 243 241 236 226 216 210 215 216 214 213 209 212 218 223 231 233 233 234 232 231 226 223 227 228 227 232 237 235 236 239 248 262 248 234 245 248 246 241 235 249 253 219 211 222
321 320 319 317 316 314 312 312 311 311 309 307 306 304 303 300 297 296 293 293 292 291 289 282 277 274 270 272 271 271 279 285 284 274 267 268 265 260 257 255 253 249 245 243 241 239 235 231 219 208 215 220 217 213 204 207 218 221 229 233 234 234 231 233 231 229 227 220 223 233 237 236 233 235 247 251 237 234 241 246 247 240 238 243 232 216 229 241
324 323 321 320 319 318 316 316 315 313 311 310 308 305 302 300 298 296 295 294 290 287 286 282 280 277 274 274 271 272 283 286 280 274 271 269 264 259 254 250 249 247 243 241 239 237 231 226 215 205 212 218 215 213 207 209 218 220 227 233 236 236 231 231 230 229 230 225 225 231 233 234 232 236 246 240 226 231 238 239 244 239 236 241 240 244 251 251
328 325 324 324 323 323 321 319 318 316 314 312 310 307 305 303 300 298 296 294 290 287 283 283 282 279 278 273 270 278 280 272 273 276 274 268 263 260 256 251 245 244 243 240 237 235 232 224 215 211 214 218 216 214 209 209 217 222 226 232 232 233 232 230 228 224 226 230 230 229 229 229 228 234 242 237 224 228 234 232 240 239 233 241 250 246 246 249
330 328 327 327 327 326 323 321 320 318 316 314 312 310 308 306 302 299 298 295 292 288 285 284 283 283 280 273 274 282 272 270 277 277 271 268 266 258 254 253 247 244 242 241 239 234 233 226 219 215 213 216 218 218 214 210 218 223 222 229 227 226 231 228 226 222 221 229 229 228 232 232 229 226 231 233 228 231 238 237 238 238 234 233 237 240 246 251
331 330 329 329 329 327 324 322 320 319 318 316 315 314 311 308 305 303 300 297 293 289 287 286 285 285 279 273 279 282 270 273 277 275 273 270 267 259 253 252 250 247 244 241 240 236 235 231 225 221 214 213 214 217 219 214 220 223 216 225 229 229 230 223 223 222 220 225 223 222 231 233 229 223 220 223 227 231 236 239 236 235 240 230 228 250 258 251
333 332 331 331 330 328 326 323 322 320 318 318 318 317 313 309 308 307 304 300 295 292 291 288 286 283 275 275 288 285 275 275 272 273 275 268 263 261 255 251 249 247 246 242 236 232 234 233 231 229 223 219 217 218 222 216 219 225 221 225 228 232 230 218 218 222 220 221 215 215 229 232 231 228 222 218 223 227 228 231 230 235 247 240 234 251 260 248
335 334 333 331 330 329 327 325 323 320 319 321 320 317 313 311 311 309 305 301 298 297 294 289 284 280 276 278 285 280 278 280 277 277 275 269 263 257 250 245 244 242 241 239 236 231 230 229 230 231 229 225 222 220 221 218 215 216 224 226 221 228 230 219 216 219 220 219 213 217 230 233 232 232 229 223 224 230 229 223 226 238 243 241 240 247 257 243
336 334 332 330 331 331 330 328 325 323 325 326 323 318 313 312 313 311 307 303 301 301 298 290 280 276 279 285 283 278 277 275 277 277 269 265 263 257 247 239 237 237 237 237 237 234 230 228 228 229 229 226 223 221 222 226 221 212 216 225 222 223 226 222 217 216 220 219 215 219 228 232 231 232 230 225 226 230 228 219 226 240 231 231 244 247 253 240
337 335 332 330 332 333 332 331 327 328 332 330 325 320 314 313 315 312 308 304 303 304 303 293 279 276 280 281 274 271 281 288 288 282 274 272 272 262 249 241 235 232 235 237 235 233 231 228 230 230 227 225 222 221 224 230 227 215 214 224 227 223 222 223 219 216 218 217 217 220 226 229 230 231 227 223 225 228 227 224 230 239 229 227 239 247 251 247
337 335 332 330 332 333 333 331 329 331 334 332 328 320 315 315 316 312 306 304 307 311 309 296 279 280 281 275 276 273 275 283 281 285 294 300 293 286 271 252 239 229 226 232 233 229 229 228 231 235 232 227 220 213 217 224 223 218 219 226 230 228 223 222 219 215 215 217 220 222 225 228 228 229 229 226 227 228 228 229 231 235 230 226 232 245 250 249
338 336 333 332 331 331 332 331 330 332 334 334 329 322 318 317 317 311 305 306 312 313 307 297 284 283 279 275 290 292 279 262 258 282 298 297 287 292 291 267 245 232 220 224 232 229 227 226 226 229 229 228 224 218 218 222 223 223 227 232 233 230 226 222 221 216 214 219 223 222 222 226 227 224 221 218 220 221 222 224 227 230 227 223 229 242 249 249
338 337 335 334 333 331 333 333 332 332 335 337 331 325 319 318 316 308 304 310 318 317 308 300 294 294 291 283 287 290 282 277 271 270 275 277 276 284 287 280 266 239 220 216 224 230 228 222 223 229 230 231 232 231 228 226 226 227 230 235 234 233 231 225 222 220 215 220 226 222 219 223 225 225 221 213 211 216 220 221 223 225 228 228 230 239 246 247
338 339 338 337 335 333 334 334 333 334 338 339 334 329 325 323 319 311 311 315 323 320 309 303 294 292 294 293 291 274 266 268 264 252 246 252 262 268 272 273 271 246 223 215 217 224 226 225 228 234 236 238 241 242 239 233 228 226 227 235 237 237 237 228 223 222 217 221 226 220 221 226 226 227 224 218 212 211 217 224 225 225 228 230 230 233 240 243
339 340 339 339 337 335 336 335 333 336 340 339 335 331 327 325 320 318 317 319 331 321 301 295 287 286 290 290 289 262 257 264 267 253 237 234 242 254 264 263 260 252 235 225 221 220 225 231 234 237 238 241 243 241 239 236 232 228 228 236 241 239 238 230 225 222 216 219 224 220 225 231 228 226 222 218 218 215 214 222 228 229 229 229 227 228 233 236
340 341 341 341 338 336 337 336 333 337 340 336 333 329 327 326 324 326 319 317 331 328 297 294 285 279 280 274 290 279 269 274 279 271 248 243 238 245 254 247 243 250 243 230 225 225 227 229 231 236 241 240 240 239 235 234 234 230 227 233 239 236 233 228 222 219 218 218 220 226 232 230 221 219 220 221 225 225 224 225 225 227 229 228 227 228 230 231
341 342 343 343 340 337 337 335 334 337 338 334 333 333 332 333 331 329 322 319 328 335 326 328 280 234 231 292 308 300 286 270 269 271 255 252 242 237 241 237 237 243 237 229 225 227 230 227 226 233 240 239 239 239 233 231 234 232 228 229 233 233 228 229 222 219 225 222 217 226 234 222 215 216 222 225 228 229 231 231 225 221 226 230 231 232 231 228
342 343 344 344 341 337 335 335 334 333 336 336 338 338 334 335 331 325 325 326 333 352 355 357 326 264 304 327 328 303 285 272 273 271 243 239 241 237 235 230 231 232 231 232 229 231 239 239 235 235 236 239 239 238 234 229 233 235 230 226 228 230 227 232 232 217 223 227 215 217 226 218 215 218 221 219 221 226 228 232 227 221 225 233 235 231 226 225
343 344 344 344 341 337 333 333 333 333 336 337 339 337 332 333 330 326 330 333 346 21 6 345 330 313 301 290 280 271 269 271 280 275 237 230 236 236 233 224 224 229 228 232 236 238 242 242 241 239 239 241 239 236 234 229 232 236 233 226 224 227 230 234 238 222 218 227 220 215 222 223 210 213 216 212 213 219 222 226 227 223 226 230 231 226 222 221
344 345 344 344 341 338 334 333 334 336 336 335 336 333 332 333 329 329 336 336 351 17 337 285 290 294 273 251 257 264 268 270 274 274 253 236 236 232 228 222 223 232 230 231 241 240 238 238 241 240 238 241 240 237 233 227 232 235 232 229 224 225 230 232 239 242 227 225 227 223 223 225 207 207 210 209 211 217 221 225 227 224 223 224 226 225 221 219
345 345 344 344 343 340 337 335 334 334 334 335 334 332 333 332 328 335 352 352 328 338 286 277 283 284 279 279 284 281 276 270 266 272 264 235 236 234 228 226 226 230 227 228 240 240 238 242 246 244 240 240 240 237 233 228 231 233 228 230 227 224 228 232 239 252 250 234 227 224 222 225 218 206 203 206 212 218 222 224 226 223 219 220 223 223 219 216
345 346 345 344 346 344 339 336 332 331 336 339 337 335 333 330 331 345 7 16 323 309 287 289 291 290 297 305 305 295 277 265 261 271 265 226 225 226 224 230 233 234 232 231 240 244 245 249 249 248 243 240 238 235 232 230 230 228 223 229 231 227 230 236 240 248 258 256 231 219 215 220 223 199 197 204 212 217 219 221 223 221 220 221 221 219 214 213
346 347 346 345 348 346 339 335 331 333 342 345 343 340 335 334 344 357 310 291 319 307 295 296 298 302 313 318 312 298 271 261 259 263 262 232 221 218 218 227 232 238 241 239 243 244 246 255 255 250 242 234 235 234 231 232 228 222 222 230 234 231 232 237 242 245 253 264 249 229 214 215 223 196 200 207 213 217 217 218 219 217 217 215 212 211 208 210
347 347 346 347 350 345 341 340 340 345 351 351 350 345 339 346 4 23 240 315 319 308 302 309 312 313 319 320 313 298 278 269 261 254 254 244 230 218 213 222 225 234 242 243 246 246 246 249 247 247 242 228 227 232 232 232 224 217 225 231 228 229 231 234 239 241 241 248 250 238 217 213 218 205 207 213 218 222 219 216 215 213 212 209 207 208 207 212
348 347 347 351 350 345 345 347 349 356 357 354 351 346 351 6 10 314 294 318 319 307 315 319 318 320 322 317 310 302 291 282 264 248 253 255 242 220 210 218 223 228 240 242 246 249 247 244 239 241 241 229 228 233 232 229 221 218 227 231 225 220 222 224 232 233 229 239 243 235 216 211 217 213 208 216 224 225 221 216 213 212 211 209 211 213 213 218
348 347 349 353 351 350 353 354 359 4 360 355 352 354 9 22 333 306 303 313 309 304 314 318 319 324 324 317 316 316 303 294 261 239 255 264 247 223 214 221 223 225 238 242 244 246 249 249 242 241 240 229 224 228 232 228 220 219 224 226 222 204 193 204 211 217 228 236 237 232 219 208 212 212 210 219 226 222 218 215 212 213 211 209 213 215 215 218
348 348 352 357 353 354 360 1 6 9 0 355 357 3 12 334 308 313 303 304 304 305 312 317 323 330 332 326 326 321 310 306 246 229 247 251 236 222 220 227 226 226 235 240 244 243 247 256 245 238 232 219 216 222 228 226 221 220 221 222 222 216 206 197 198 210 224 231 229 227 223 208 201 204 211 220 226 222 218 213 211 212 211 210 213 213 212 213
348 347 352 2 1 359 2 3 8 8 357 353 360 4 354 310 311 312 308 311 312 312 317 321 326 332 338 341 329 311 305 308 262 240 240 237 238 237 233 232 225 223 227 234 244 246 250 261 255 235 221 212 214 221 220 222 227 223 218 223 225 218 215 217 221 227 226 225 225 222 223 215 208 212 220 218 218 221 217 209 207 209 209 209 211 211 210 212
348 347 350 5 8 5 3 2 6 3 351 352 0 357 340 324 315 310 316 322 320 319 322 325 328 330 334 339 329 313 308 312 296 270 256 240 242 247 244 238 228 222 223 226 236 251 261 262 256 233 221 217 217 219 218 217 220 220 217 221 219 214 217 223 227 234 226 204 219 220 215 198 203 218 230 217 210 215 211 203 204 206 206 207 209 209 208 210
347 347 347 359 7 6 4 2 2 354 348 355 358 347 337 332 325 322 326 326 321 321 321 321 325 331 326 319 326 333 329 316 308 282 268 257 254 253 238 230 229 227 227 230 240 250 264 272 265 239 226 223 215 215 221 218 221 231 226 213 212 217 231 237 231 229 219 193 212 214 197 164 178 209 224 214 207 210 208 201 199 203 204 205 206 206 205 208
348 348 344 353 2 3 1 359 354 347 350 358 353 342 339 338 334 333 330 322 318 321 321 319 323 329 319 302 318 339 343 290 297 289 268 261 279 276 229 221 223 220 222 229 239 245 257 281 276 237 222 222 213 215 224 222 222 225 216 211 223 232 238 238 234 210 191 204 224 206 193 177 181 200 214 209 209 212 207 198 196 199 202 203 203 202 203 208
349 350 345 352 1 360 356 353 346 345 356 358 349 341 340 337 336 340 333 322 321 324 324 325 325 326 321 310 316 336 348 292 294 295 280 269 283 285 226 218 220 221 227 231 239 250 256 274 295 241 213 211 209 214 221 217 213 214 222 245 261 258 243 228 226 223 181 191 231 197 200 193 190 201 208 207 213 215 204 195 195 197 200 202 201 200 204 208
349 355 355 354 360 357 350 348 346 348 353 352 345 342 340 337 340 347 340 328 330 332 327 325 324 323 323 319 321 332 324 308 296 279 271 276 289 302 255 209 218 234 245 240 244 262 256 245 279 268 194 195 207 210 210 209 210 216 231 247 253 247 243 230 228 239 228 178 182 171 210 218 203 202 201 201 211 213 203 195 194 196 198 200 200 202 206 209
350 357 1 353 354 353 346 345 352 354 350 346 343 342 339 335 339 346 345 338 339 339 333 325 321 322 323 317 321 329 310 299 288 269 268 275 284 305 277 204 211 225 226 228 241 258 251 242 279 284 195 199 209 206 204 205 208 218 226 228 231 237 235 225 230 235 233 231 199 165 198 220 213 206 198 201 209 206 199 193 191 193 197 198 200 202 206 209
352 358 5 355 348 347 341 344 356 354 346 342 339 336 332 331 338 344 346 342 340 341 340 329 320 321 319 305 303 321 312 302 289 271 275 281 281 306 312 221 207 209 217 231 245 256 258 263 287 292 239 221 218 211 211 206 202 220 231 220 233 252 238 225 219 218 223 238 221 201 219 215 203 197 196 203 206 193 188 187 187 195 199 199 199 200 203 208
356 355 2 357 345 342 339 343 355 351 343 337 332 333 334 336 339 340 342 341 337 342 347 339 330 327 320 312 306 307 309 308 296 276 286 284 272 291 309 271 229 210 221 232 240 258 268 268 285 299 273 247 236 220 218 215 220 249 252 237 244 261 245 229 231 222 220 235 223 198 239 211 195 194 199 200 197 187 184 185 188 196 199 199 198 198 200 205
358 346 354 357 346 341 338 338 343 343 342 337 332 339 345 346 343 337 340 342 337 342 351 346 339 335 330 331 326 313 310 303 278 270 279 272 272 265 243 259 266 249 236 229 241 282 297 279 288 321 41 236 234 221 226 234 242 250 251 241 242 257 251 234 236 241 229 227 221 189 196 212 197 196 198 192 187 181 179 182 186 191 196 196 194 196 200 205
357 350 359 358 344 338 339 337 337 336 336 335 336 342 346 350 350 339 338 341 336 338 348 350 349 341 333 336 331 313 301 290 281 279 260 261 275 247 186 230 276 274 256 246 268 299 302 293 295 301 299 168 189 213 222 225 230 238 244 242 246 266 266 246 241 248 231 219 220 201 189 208 191 178 182 182 183 180 178 186 191 192 196 196 194 196 200 204
351 354 3 360 345 339 341 338 335 332 331 331 336 344 345 347 348 337 334 342 339 337 341 348 357 351 337 333 327 313 295 280 277 271 264 277 278 191 178 243 297 264 254 259 282 303 307 302 304 297 276 255 250 233 214 210 219 233 236 233 251 271 263 257 257 254 244 230 228 213 199 203 184 165 169 173 180 184 187 196 201 199 198 197 196 198 202 206
349 352 358 358 353 349 347 341 334 337 336 331 335 346 345 342 340 335 338 347 347 340 336 336 347 351 340 321 311 308 306 287 267 262 273 286 256 210 229 276 70 212 251 272 291 308 318 313 311 305 275 265 289 271 227 217 227 240 238 234 246 248 242 256 256 240 252 284 247 216 200 194 176 161 164 169 179 187 187 189 195 199 197 195 197 199 201 205
351 350 351 351 350 351 355 2 359 354 353 350 346 347 341 336 335 338 344 349 347 342 336 336 348 357 350 316 304 306 313 300 265 260 277 276 246 236 258 284 97 181 245 267 278 295 312 320 325 314 276 270 280 258 241 244 245 250 254 245 236 220 228 255 246 230 250 283 191 176 171 168 158 155 162 168 177 185 183 184 191 198 197 195 197 199 200 203
348 347 347 348 347 346 346 354 0 0 4 2 349 339 334 334 337 342 345 346 347 347 341 342 354 7 5 346 335 324 326 328 299 280 279 266 245 232 242 39 54 167 241 250 259 281 297 315 335 323 287 280 269 244 247 252 244 250 254 241 227 230 251 262 243 210 230 197 159 139 143 148 149 151 158 165 174 178 180 188 194 197 199 199 199 200 200 203
346 346 348 346 345 347 343 341 350 1 10 1 339 329 334 337 340 345 346 346 352 354 350 350 2 12 16 18 18 8 350 339 316 295 288 272 258 229 200 28 17 294 240 262 267 282 293 306 327 326 299 277 257 252 257 235 230 250 259 246 238 250 262 260 189 148 193 172 154 155 141 140 147 153 156 163 174 177 182 191 193 191 195 198 199 200 201 202
346 345 345 345 344 347 350 343 342 357 7 350 331 332 338 341 344 345 344 350 1 0 357 2 13 18 23 30 26 10 359 340 291 291 299 278 265 234 192 69 12 333 240 292 282 286 304 310 320 333 313 270 252 267 256 227 235 258 262 257 250 248 248 212 132 160 192 179 161 168 141 131 151 163 161 160 166 178 185 190 192 191 193 195 197 197 198 200
348 343 339 341 343 343 347 348 346 354 351 333 335 342 341 344 349 345 341 352 5 5 3 7 13 17 23 28 20 8 9 352 308 299 299 260 244 249 209 158 9 334 282 315 301 292 307 310 320 341 323 275 280 291 250 238 268 261 250 256 255 243 218 138 150 175 174 162 150 154 139 134 154 166 168 160 151 167 180 186 191 196 199 202 204 204 204 206
Height
3098 3097 3097 3096 3095 3094 3093 3092 3092 3091 3090 3089 3089 3088 3087 3087 3086 3085 3085 3084 3084 3084 3083 3083 3083 3082 3082 3082 3083 3082 3082 3082 3083 3083 3083 3083 3084 3085 3087 3088 3089 3091 3092 3094 3097 3099 3102 3105 3108 3111 3113 3116 3117 3121 3125 3127 3131 3133 3133 3133 3130 3131 3133 3136 3141 3144 3147 3149 3150 3152 3153 3153 3153 3153 3155 3157 3157 3159 3161 3164 3163 3160 3161 3161 3163 3165 3166 3169
3097 3097 3096 3095 3094 3093 3092 3092 3091 3090 3089 3088 3087 3087 3086 3085 3085 3084 3083 3083 3083 3082 3082 3082 3082 3081 3081 3081 3081 3081 3081 3081 3081 3082 3081 3082 3083 3084 3085 3085 3086 3088 3089 3090 3093 3095 3097 3100 3103 3106 3108 3110 3113 3117 3120 3123 3126 3127 3127 3126 3124 3126 3130 3135 3140 3143 3146 3148 3149 3149 3150 3152 3153 3152 3153 3156 3156 3157 3159 3162 3158 3156 3161 3161 3161 3164 3165 3167
3096 3096 3095 3094 3093 3092 3091 3091 3090 3089 3088 3087 3086 3085 3084 3084 3083 3083 3082 3082 3081 3081 3081 3080 3080 3080 3079 3079 3079 3080 3079 3079 3080 3080 3080 3081 3082 3082 3083 3083 3084 3085 3086 3087 3089 3091 3093 3096 3099 3101 3103 3105 3108 3112 3115 3118 3121 3122 3123 3120 3119 3124 3129 3133 3137 3141 3144 3147 3148 3147 3148 3149 3151 3152 3152 3154 3155 3155 3157 3160 3157 3154 3159 3161 3161 3163 3164 3165
3095 3095 3094 3093 3092 3091 3090 3089 3088 3088 3087 3085 3084 3083 3082 3082 3081 3081 3080 3080 3080 3079 3079 3079 3079 3078 3078 3078 3078 3078 3078 3078 3078 3079 3079 3080 3080 3081 3081 3081 3082 3083 3084 3085 3086 3088 3090 3092 3095 3097 3098 3100 3104 3107 3109 3113 3116 3117 3117 3115 3118 3124 3127 3130 3134 3138 3141 3145 3146 3145 3145 3146 3147 3149 3150 3152 3152 3154 3154 3157 3158 3155 3155 3157 3159 3161 3162 3163
3094 3094 3093 3092 3091 3090 3089 3088 3087 3086 3085 3083 3082 3081 3080 3079 3079 3078 3078 3078 3078 3077 3077 3077 3077 3076 3076 3075 3075 3076 3076 3075 3076 3077 3078 3078 3079 3079 3079 3080 3081 3081 3082 3083 3084 3086 3087 3089 3091 3093 3094 3096 3100 3102 3104 3108 3112 3113 3113 3113 3117 3122 3123 3128 3132 3135 3139 3142 3144 3143 3142 3142 3143 3144 3146 3149 3150 3151 3153 3155 3157 3156 3153 3152 3155 3158 3161 3161
3093 3092 3092 3091 3090 3089 3088 3087 3085 3084 3083 3082 3080 3079 3079 3078 3077 3076 3075 3075 3075 3075 3075 3075 3074 3074 3074 3073 3073 3073 3074 3073 3073 3075 3076 3077 3077 3077 3077 3078 3079 3080 3081 3081 3082 3083 3085 3087 3088 3090 3091 3093 3096 3098 3101 3105 3109 3109 3108 3111 3114 3117 3121 3126 3130 3133 3136 3138 3139 3141 3140 3140 3140 3140 3142 3145 3147 3149 3152 3153 3153 3155 3153 3150 3153 3155 3158 3160
3092 3091 3090 3090 3089 3088 3087 3085 3084 3083 3082 3080 3079 3078 3077 3077 3076 3074 3073 3072 3072 3072 3072 3072 3072 3072 3072 3072 3071 3071 3071 3070 3071 3073 3074 3074 3074 3075 3075 3076 3077 3078 3079 3079 3081 3081 3082 3084 3085 3087 3089 3090 3092 3095 3098 3103 3106 3105 3104 3107 3110 3114 3118 3122 3127 3130 3133 3134 3135 3139 3140 3139 3137 3137 3139 3140 3143 3146 3150 3152 3149 3151 3152 3151 3153 3154 3155 3157
3091 3090 3089 3088 3088 3086 3085 3084 3083 3082 3080 3079 3078 3077 3076 3075 3074 3072 3071 3070 3070 3069 3069 3069 3069 3069 3069 3069 3069 3069 3069 3067 3069 3071 3070 3071 3072 3073 3073 3073 3074 3075 3076 3077 3078 3079 3080 3082 3083 3085 3087 3088 3090 3093 3096 3100 3101 3100 3100 3104 3108 3111 3115 3119 3123 3126 3128 3130 3133 3136 3137 3136 3135 3136 3137 3137 3140 3143 3148 3152 3146 3147 3151 3150 3152 3154 3155 3156
3090 3089 3088 3087 3086 3085 3084 3082 3081 3080 3078 3077 3076 3075 3074 3072 3071 3070 3069 3068 3067 3067 3066 3066 3066 3066 3066 3067 3067 3067 3067 3065 3065 3067 3068 3068 3069 3070 3070 3070 3071 3072 3074 3074 3076 3077 3078 3080 3081 3083 3084 3086 3088 3090 3093 3096 3095 3096 3098 3102 3105 3108 3113 3116 3118 3121 3124 3126 3129 3132 3132 3132 3134 3136 3135 3134 3138 3139 3144 3150 3145 3143 3148 3148 3149 3152 3153 3155
3089 3088 3087 3086 3085 3083 3082 3081 3079 3078 3076 3075 3074 3072 3071 3069 3068 3067 3066 3066 3065 3064 3064 3063 3063 3063 3063 3063 3063 3065 3066 3063 3061 3063 3065 3065 3066 3067 3067 3068 3069 3070 3071 3072 3073 3074 3076 3078 3079 3080 3080 3082 3084 3086 3089 3090 3091 3094 3097 3099 3102 3106 3110 3112 3114 3117 3120 3123 3124 3126 3126 3128 3134 3135 3131 3132 3137 3137 3140 3146 3145 3143 3145 3146 3147 3149 3151 3153
3089 3087 3086 3085 3083 3082 3081 3079 3077 3076 3074 3072 3071 3069 3068 3066 3065 3064 3063 3062 3062 3061 3060 3060 3059 3059 3060 3059 3059 3063 3063 3060 3059 3061 3062 3061 3063 3064 3064 3065 3066 3067 3068 3069 3070 3072 3073 3074 3076 3077 3078 3079 3081 3083 3084 3086 3088 3091 3094 3095 3098 3102 3105 3106 3108 3112 3116 3118 3120 3122 3124 3125 3130 3129 3127 3131 3136 3137 3138 3142 3144 3144 3144 3144 3145 3146 3148 3150
3088 3086 3085 3083 3082 3081 3079 3077 3075 3073 3072 3070 3068 3067 3065 3064 3062 3061 3060 3060 3059 3058 3057 3057 3056 3055 3055 3053 3056 3060 3059 3056 3056 3058 3059 3059 3060 3060 3061 3062 3063 3064 3065 3066 3068 3069 3070 3071 3073 3074 3075 3077 3078 3080 3081 3083 3084 3085 3088 3090 3092 3096 3098 3099 3103 3107 3111 3112 3116 3122 3122 3120 3120 3120 3123 3130 3134 3136 3137 3137 3140 3143 3143 3142 3141 3141 3143 3146
3087 3085 3084 3082 3081 3079 3077 3075 3073 3071 3069 3067 3066 3064 3062 3061 3059 3059 3058 3057 3056 3055 3055 3054 3053 3053 3050 3048 3054 3056 3054 3054 3054 3054 3056 3057 3057 3058 3058 3059 3060 3061 3062 3063 3065 3066 3067 3068 3070 3070 3072 3074 3075 3077 3078 3079 3080 3081 3084 3085 3088 3091 3089 3092 3099 3103 3106 3108 3113 3119 3116 3111 3112 3115 3120 3127 3132 3135 3136 3135 3137 3140 3142 3141 3139 3138 3139 3142
3086 3084 3083 3081 3079 3077 3075 3073 3070 3068 3066 3065 3063 3061 3060 3058 3057 3056 3055 3054 3053 3052 3052 3052 3051 3050 3046 3046 3051 3052 3050 3051 3051 3050 3052 3053 3054 3055 3056 3057 3058 3058 3059 3060 3062 3063 3064 3066 3067 3067 3069 3071 3072 3074 3075 3077 3078 3080 3082 3083 3084 3084 3081 3088 3095 3098 3101 3103 3110 3115 3108 3104 3108 3112 3118 3124 3128 3131 3132 3133 3135 3138 3140 3137 3136 3136 3138 3141
3084 3083 3081 3079 3077 3075 3073 3070 3068 3066 3064 3063 3061 3059 3057 3055 3054 3053 3052 3051 3050 3050 3050 3049 3048 3046 3044 3045 3048 3048 3047 3047 3047 3048 3048 3049 3050 3051 3053 3054 3055 3056 3057 3057 3059 3060 3061 3063 3064 3065 3067 3068 3071 3072 3073 3075 3076 3077 3079 3077 3078 3078 3079 3086 3090 3092 3096 3100 3107 3109 3100 3099 3105 3110 3117 3122 3124 3126 3128 3130 3133 3137 3138 3133 3131 3134 3137 3140
3083 3081 3079 3077 3076 3073 3071 3068 3066 3063 3062 3060 3059 3056 3054 3053 3052 3051 3049 3049 3048 3047 3047 3046 3045 3043 3042 3043 3045 3045 3044 3045 3045 3045 3044 3045 3046 3048 3050 3051 3052 3053 3054 3055 3056 3058 3059 3060 3061 3062 3064 3066 3068 3069 3071 3073 3073 3074 3074 3072 3073 3076 3079 3083 3085 3088 3093 3098 3102 3100 3094 3097 3104 3108 3114 3118 3120 3122 3124 3125 3129 3133 3135 3130 3128 3132 3134 3137
3082 3080 3078 3076 3074 3071 3069 3066 3063 3061 3060 3058 3057 3054 3052 3051 3050 3049 3047 3046 3045 3045 3045 3043 3042 3041 3041 3041 3042 3042 3042 3042 3042 3041 3041 3043 3043 3045 3047 3048 3049 3051 3052 3053 3054 3055 3056 3057 3059 3060 3061 3063 3064 3067 3069 3068 3067 3068 3069 3069 3072 3075 3078 3080 3082 3086 3090 3093 3094 3093 3092 3096 3102 3106 3111 3113 3116 3119 3120 3122 3124 3129 3132 3129 3128 3131 3133 3133
3080 3078 3076 3074 3072 3070 3067 3064 3061 3059 3058 3057 3054 3052 3050 3049 3048 3046 3045 3043 3043 3043 3043 3041 3040 3039 3039 3039 3039 3041 3041 3041 3041 3039 3039 3040 3041 3043 3044 3045 3047 3048 3049 3050 3051 3053 3054 3055 3056 3057 3059 3060 3061 3063 3062 3060 3062 3065 3067 3069 3072 3074 3075 3076 3078 3083 3087 3089 3089 3090 3091 3093 3099 3105 3107 3109 3112 3114 3116 3118 3121 3125 3128 3128 3128 3129 3130 3131
3079 3077 3075 3073 3071 3068 3065 3062 3060 3058 3057 3055 3053 3050 3048 3047 3046 3044 3042 3041 3041 3041 3040 3039 3038 3038 3038 3038 3039 3039 3039 3040 3040 3040 3040 3040 3040 3040 3042 3043 3044 3045 3046 3047 3048 3050 3051 3052 3054 3054 3054 3055 3057 3058 3057 3058 3062 3066 3068 3070 3071 3072 3071 3072 3076 3081 3084 3085 3084 3085 3087 3091 3097 3101 3103 3105 3107 3110 3111 3115 3118 3122 3125 3127 3128 3126 3127 3128
3077 3075 3073 3071 3069 3066 3064 3061 3058 3056 3055 3053 3051 3049 3047 3045 3044 3041 3039 3039 3039 3038 3037 3037 3035 3033 3034 3036 3037 3037 3037 3038 3039 3040 3041 3040 3040 3039 3040 3040 3042 3043 3043 3044 3046 3048 3049 3050 3049 3049 3050 3052 3055 3056 3057 3059 3063 3066 3068 3069 3069 3069 3068 3071 3075 3078 3082 3082 3080 3082 3086 3089 3092 3096 3099 3102 3104 3105 3108 3111 3114 3118 3121 3125 3127 3124 3123 3124
3076 3073 3071 3069 3067 3065 3062 3059 3057 3054 3053 3051 3050 3048 3046 3044 3042 3039 3036 3036 3037 3035 3032 3033 3032 3029 3030 3032 3034 3035 3036 3036 3037 3038 3039 3040 3039 3038 3038 3039 3040 3040 3040 3042 3045 3047 3047 3046 3045 3045 3047 3051 3053 3055 3057 3058 3061 3063 3064 3065 3065 3065 3066 3069 3072 3075 3079 3079 3077 3080 3084 3085 3088 3091 3095 3099 3100 3101 3103 3107 3110 3114 3117 3120 3123 3122 3122 3122
3074 3072 3069 3068 3065 3063 3061 3058 3055 3053 3052 3050 3048 3046 3045 3043 3041 3039 3035 3033 3035 3035 3030 3029 3029 3028 3029 3030 3031 3033 3034 3033 3034 3035 3037 3039 3038 3036 3036 3037 3037 3037 3039 3041 3043 3044 3044 3042 3042 3043 3046 3049 3051 3053 3055 3057 3059 3060 3060 3061 3060 3061 3065 3067 3069 3072 3075 3074 3074 3078 3079 3079 3084 3088 3090 3093 3096 3096 3099 3103 3106 3110 3112 3114 3117 3119 3119 3118
3073 3070 3068 3066 3064 3062 3060 3057 3054 3052 3050 3049 3047 3045 3044 3042 3040 3039 3036 3031 3031 3031 3028 3027 3027 3027 3028 3029 3030 3031 3030 3030 3031 3032 3035 3036 3035 3035 3035 3035 3036 3036 3038 3039 3040 3040 3039 3037 3039 3042 3045 3047 3048 3050 3052 3054 3056 3056 3057 3057 3056 3058 3062 3063 3064 3067 3070 3071 3072 3076 3076 3075 3080 3083 3084 3087 3090 3093 3096 3099 3102 3105 3107 3110 3113 3115 3114 3112
3072 3069 3066 3064 3062 3060 3058 3056 3053 3051 3049 3047 3045 3044 3042 3040 3038 3037 3035 3031 3028 3028 3026 3026 3026 3026 3027 3028 3028 3029 3028 3028 3029 3030 3032 3033 3033 3033 3032 3033 3035 3035 3035 3036 3037 3037 3035 3035 3038 3041 3044 3045 3046 3047 3049 3051 3051 3052 3053 3052 3053 3056 3058 3059 3063 3066 3068 3069 3071 3074 3074 3071 3073 3076 3078 3083 3087 3089 3091 3094 3097 3100 3103 3106 3110 3110 3109 3108
3071 3068 3065 3063 3061 3059 3057 3055 3052 3050 3048 3046 3044 3042 3040 3039 3037 3035 3033 3029 3027 3026 3025 3026 3026 3026 3026 3026 3027 3027 3027 3026 3026 3028 3029 3030 3030 3030 3030 3031 3032 3031 3032 3034 3036 3035 3034 3035 3038 3040 3042 3043 3043 3044 3046 3048 3048 3048 3048 3048 3052 3055 3056 3058 3062 3065 3065 3063 3064 3069 3068 3065 3066 3070 3073 3078 3081 3083 3086 3088 3091 3095 3098 3102 3105 3105 3104 3104
3070 3067 3064 3062 3060 3058 3055 3053 3051 3049 3046 3044 3043 3041 3040 3039 3037 3034 3032 3029 3027 3026 3025 3026 3026 3026 3026 3027 3027 3027 3026 3024 3024 3024 3025 3026 3027 3027 3027 3028 3028 3028 3030 3032 3033 3033 3031 3033 3036 3038 3039 3040 3040 3040 3042 3046 3046 3044 3043 3048 3052 3054 3055 3056 3058 3062 3060 3057 3060 3064 3063 3062 3063 3064 3067 3072 3075 3077 3081 3083 3086 3091 3094 3097 3100 3101 3100 3100
3069 3066 3063 3060 3058 3056 3054 3052 3050 3048 3045 3044 3042 3041 3039 3038 3036 3033 3031 3030 3028 3026 3026 3026 3026 3026 3027 3028 3027 3026 3025 3023 3022 3021 3022 3023 3023 3024 3023 3024 3026 3026 3028 3031 3030 3027 3027 3030 3033 3034 3035 3036 3036 3037 3039 3043 3043 3040 3043 3049 3051 3051 3052 3052 3055 3058 3057 3058 3060 3061 3061 3061 3059 3058 3062 3067 3070 3073 3076 3078 3082 3085 3089 3093 3096 3097 3097 3097
3067 3065 3062 3059 3057 3055 3053 3052 3050 3047 3046 3044 3041 3040 3039 3037 3035 3033 3032 3031 3029 3027 3027 3027 3027 3026 3026 3026 3025 3023 3022 3021 3020 3019 3019 3020 3020 3020 3020 3021 3023 3023 3026 3028 3025 3023 3026 3028 3030 3031 3032 3032 3032 3034 3037 3040 3039 3038 3045 3049 3048 3049 3049 3050 3054 3055 3056 3058 3056 3055 3058 3057 3052 3053 3059 3063 3065 3067 3070 3073 3077 3080 3084 3088 3091 3092 3092 3094
3067 3064 3062 3058 3056 3054 3053 3051 3049 3047 3045 3043 3041 3039 3038 3037 3035 3033 3033 3032 3028 3027 3027 3026 3026 3025 3024 3023 3021 3019 3018 3018 3017 3016 3016 3017 3017 3017 3017 3019 3021 3021 3023 3025 3023 3023 3025 3026 3027 3028 3028 3028 3030 3033 3035 3037 3036 3039 3045 3047 3048 3049 3048 3049 3053 3054 3055 3054 3049 3049 3053 3050 3046 3050 3055 3056 3056 3059 3065 3069 3073 3076 3080 3083 3086 3087 3087 3090
3066 3064 3061 3058 3055 3054 3053 3051 3048 3046 3044 3042 3040 3038 3037 3036 3034 3033 3033 3031 3027 3026 3026 3025 3024 3023 3022 3019 3016 3015 3015 3013 3013 3013 3013 3014 3014 3015 3016 3018 3020 3020 3021 3022 3021 3020 3023 3024 3024 3024 3024 3026 3028 3030 3033 3034 3036 3040 3043 3044 3047 3047 3046 3049 3051 3053 3055 3049 3043 3044 3046 3045 3045 3045 3046 3048 3050 3055 3061 3065 3069 3073 3075 3078 3081 3081 3083 3087
3065 3063 3061 3058 3055 3053 3051 3049 3046 3043 3041 3040 3039 3038 3036 3035 3033 3033 3032 3029 3027 3026 3025 3024 3023 3021 3019 3016 3012 3011 3010 3009 3009 3011 3010 3011 3012 3013 3014 3016 3017 3018 3018 3018 3018 3018 3020 3021 3020 3019 3020 3022 3025 3026 3029 3031 3034 3038 3038 3041 3044 3042 3044 3048 3048 3051 3052 3043 3038 3039 3041 3042 3039 3036 3039 3045 3050 3055 3058 3061 3065 3068 3071 3075 3076 3077 3080 3083
3064 3062 3060 3058 3055 3053 3051 3048 3045 3042 3041 3040 3038 3038 3036 3034 3033 3033 3031 3029 3026 3025 3023 3022 3021 3018 3016 3012 3009 3008 3006 3005 3006 3008 3008 3008 3010 3011 3011 3013 3014 3015 3015 3015 3015 3016 3016 3015 3015 3016 3017 3019 3022 3022 3024 3027 3029 3032 3034 3037 3039 3037 3040 3044 3044 3046 3044 3036 3033 3035 3038 3036 3031 3031 3038 3044 3048 3051 3054 3057 3061 3064 3067 3071 3072 3073 3076 3080
3064 3062 3060 3057 3055 3053 3051 3048 3045 3043 3042 3040 3039 3037 3036 3035 3034 3032 3030 3029 3027 3024 3023 3021 3019 3016 3013 3009 3007 3006 3005 3004 3004 3005 3006 3006 3007 3008 3009 3011 3012 3013 3013 3013 3014 3014 3012 3011 3011 3013 3013 3014 3017 3019 3020 3021 3023 3026 3028 3031 3032 3031 3035 3038 3039 3039 3034 3028 3030 3033 3033 3029 3027 3031 3037 3041 3044 3047 3051 3054 3057 3060 3063 3067 3068 3069 3073 3076
3063 3061 3059 3057 3055 3053 3051 3048 3045 3043 3042 3041 3039 3037 3036 3035 3033 3031 3029 3029 3026 3024 3022 3019 3016 3014 3011 3008 3006 3005 3004 3003 3003 3004 3004 3005 3005 3005 3007 3008 3009 3011 3012 3012 3012 3011 3010 3008 3006 3006 3007 3009 3012 3014 3016 3019 3022 3022 3024 3028 3028 3026 3028 3031 3031 3029 3025 3025 3028 3029 3026 3021 3023 3029 3032 3038 3042 3044 3047 3051 3054 3057 3060 3063 3064 3066 3069 3073
3062 3060 3059 3057 3054 3052 3049 3047 3044 3042 3042 3041 3039 3037 3036 3035 3032 3030 3028 3027 3025 3022 3019 3017 3014 3011 3009 3007 3006 3004 3004 3003 3003 3003 3003 3003 3003 3003 3004 3005 3006 3008 3010 3010 3009 3008 3008 3003 3001 3002 3004 3006 3009 3010 3014 3019 3019 3019 3023 3026 3024 3023 3025 3026 3024 3022 3023 3025 3025 3024 3020 3017 3022 3027 3031 3036 3039 3040 3044 3047 3050 3053 3056 3059 3060 3061 3065 3069
3061 3059 3058 3056 3053 3051 3049 3046 3043 3042 3043 3042 3039 3037 3037 3035 3032 3030 3028 3026 3023 3020 3016 3013 3012 3010 3007 3006 3005 3004 3003 3003 3003 3003 3002 3003 3003 3002 3002 3003 3004 3005 3007 3007 3007 3007 3005 3000 2998 3001 3002 3004 3006 3008 3012 3015 3014 3015 3019 3019 3019 3021 3024 3024 3022 3022 3023 3024 3022 3019 3017 3018 3023 3027 3030 3033 3034 3036 3040 3043 3046 3049 3052 3056 3056 3057 3062 3065
3060 3058 3056 3054 3052 3051 3049 3046 3044 3044 3043 3041 3039 3038 3037 3035 3033 3030 3027 3024 3022 3020 3017 3013 3010 3009 3007 3005 3005 3004 3003 3003 3003 3003 3002 3002 3001 3000 3000 3002 3003 3004 3004 3005 3006 3006 3004 2999 2996 2999 2999 3000 3004 3008 3010 3011 3011 3013 3014 3016 3020 3023 3021 3021 3021 3020 3021 3021 3018 3015 3015 3016 3019 3023 3026 3029 3030 3031 3035 3039 3043 3045 3049 3052 3052 3054 3058 3061
3060 3057 3055 3053 3051 3050 3048 3046 3045 3045 3043 3041 3039 3038 3036 3033 3031 3029 3026 3023 3021 3019 3017 3015 3011 3009 3007 3006 3004 3004 3004 3004 3003 3002 3001 3001 3000 2998 2998 2999 3001 3002 3002 3003 3004 3004 3003 2999 2994 2994 2996 2997 3002 3006 3006 3007 3010 3012 3010 3012 3017 3020 3018 3018 3019 3018 3018 3018 3014 3012 3014 3014 3015 3018 3022 3024 3025 3027 3031 3036 3039 3042 3046 3049 3050 3053 3056 3058
3059 3057 3054 3052 3050 3049 3047 3047 3046 3044 3042 3040 3039 3037 3035 3032 3031 3029 3026 3022 3020 3018 3016 3014 3012 3009 3007 3006 3004 3003 3003 3003 3002 3002 3001 3000 2999 2997 2998 2998 2999 3000 3001 3001 3002 3002 3002 3000 2995 2992 2994 2997 3000 3001 3001 3003 3007 3010 3010 3010 3011 3014 3014 3015 3015 3014 3014 3015 3014 3013 3013 3012 3013 3016 3019 3021 3023 3025 3029 3033 3036 3040 3043 3046 3048 3050 3053 3056
3058 3057 3053 3050 3050 3049 3047 3047 3046 3043 3041 3040 3039 3037 3034 3031 3029 3029 3026 3022 3019 3017 3015 3013 3011 3009 3007 3005 3003 3002 3002 3002 3002 3002 3001 3000 2998 2997 2998 2998 2998 2999 2999 2999 3000 3000 3000 3000 2996 2994 2995 2996 2996 2994 2996 3001 3005 3008 3010 3009 3008 3010 3011 3013 3013 3011 3011 3012 3012 3014 3013 3010 3012 3015 3018 3019 3021 3024 3027 3031 3034 3038 3041 3045 3047 3048 3050 3054
3058 3056 3054 3051 3050 3050 3048 3047 3045 3043 3041 3040 3038 3036 3034 3031 3028 3027 3026 3022 3019 3016 3014 3012 3010 3008 3006 3004 3003 3002 3001 3001 3000 3001 3000 2999 2998 2998 2997 2998 2998 2999 2998 2998 2999 2999 2998 2998 2996 2995 2995 2994 2992 2993 2997 3001 3005 3007 3008 3007 3007 3009 3010 3012 3012 3009 3010 3010 3010 3011 3012 3010 3011 3014 3017 3019 3020 3022 3026 3029 3033 3037 3040 3043 3045 3046 3049 3053
3058 3057 3055 3053 3051 3051 3049 3047 3045 3043 3042 3041 3039 3037 3036 3032 3028 3026 3024 3022 3019 3016 3012 3010 3009 3007 3006 3004 3003 3002 3001 3000 2999 2999 2999 2998 2998 2998 2998 2998 2998 2999 2999 2998 2997 2998 2998 2998 2996 2995 2995 2994 2993 2996 2999 3001 3004 3006 3006 3006 3008 3009 3010 3011 3010 3008 3008 3009 3008 3009 3010 3009 3010 3013 3015 3018 3020 3022 3025 3028 3032 3036 3039 3042 3044 3045 3049 3052
3058 3057 3056 3054 3052 3051 3049 3047 3046 3045 3044 3043 3041 3039 3036 3033 3028 3025 3024 3021 3018 3015 3013 3010 3008 3006 3004 3003 3002 3001 3001 2999 2998 2998 2998 2998 2998 2998 2998 2999 2999 2999 2999 2998 2997 2998 2999 2998 2997 2995 2995 2995 2996 2998 3001 3003 3005 3005 3004 3005 3007 3008 3010 3010 3010 3008 3008 3008 3008 3009 3009 3009 3009 3011 3014 3016 3019 3022 3026 3029 3031 3034 3037 3039 3042 3044 3048 3050
3058 3057 3056 3054 3052 3051 3049 3047 3046 3045 3044 3042 3040 3037 3034 3032 3029 3025 3023 3020 3017 3015 3013 3010 3008 3006 3004 3003 3002 3001 3001 2999 2998 2998 2998 2997 2997 2996 2997 2999 3000 3000 3000 2998 2998 2999 2999 2999 2998 2996 2996 2998 2999 3001 3002 3002 3004 3003 3002 3004 3005 3007 3009 3009 3009 3010 3009 3007 3007 3009 3009 3008 3008 3009 3011 3014 3017 3021 3025 3028 3030 3032 3035 3037 3040 3043 3046 3048
3059 3057 3055 3053 3051 3050 3049 3048 3046 3044 3043 3041 3038 3035 3033 3031 3029 3025 3023 3021 3017 3015 3013 3011 3008 3006 3004 3004 3002 3001 3000 3000 2999 2998 2998 2997 2997 2996 2997 2999 3000 3000 3000 2999 2999 3000 2999 2999 2998 2998 2998 2999 3000 3000 2999 2999 3001 3002 3002 3002 3003 3004 3005 3007 3008 3009 3008 3007 3007 3007 3007 3007 3007 3008 3010 3013 3016 3019 3023 3027 3029 3030 3033 3035 3038 3041 3044 3047
3058 3056 3055 3053 3051 3049 3048 3047 3046 3044 3042 3040 3038 3035 3032 3030 3027 3025 3023 3021 3017 3014 3013 3011 3009 3007 3005 3004 3002 3000 2999 2999 2998 2998 2997 2997 2997 2997 2997 2997 2998 3000 3000 2999 2999 3000 2999 2999 2998 2998 2998 2998 2998 2998 2997 2998 3000 3001 3001 3001 3002 3001 3001 3005 3008 3007 3006 3006 3005 3005 3006 3007 3008 3009 3011 3014 3017 3019 3022 3025 3027 3028 3030 3033 3036 3039 3042 3046
3058 3055 3054 3053 3052 3051 3049 3048 3047 3046 3044 3042 3039 3035 3032 3030 3027 3025 3022 3020 3017 3013 3012 3010 3008 3006 3005 3003 3001 3000 2998 2998 2997 2997 2997 2998 2997 2997 2998 2997 2998 3000 3000 2999 2999 2999 2999 2998 2997 2997 2996 2996 2998 2999 2999 3000 2999 3000 3001 3001 3002 3001 3000 3004 3007 3005 3005 3005 3004 3004 3005 3006 3007 3009 3011 3014 3017 3019 3021 3023 3025 3027 3029 3032 3035 3038 3041 3045
3057 3055 3054 3053 3052 3051 3049 3048 3047 3046 3044 3042 3039 3036 3033 3031 3028 3025 3021 3019 3017 3014 3011 3009 3007 3006 3004 3003 3001 2999 2997 2996 2996 2996 2997 2998 2998 2998 2999 2999 2999 3000 3001 3000 2999 2999 2999 2998 2997 2996 2995 2995 2997 2999 3001 3001 3000 3000 3001 3001 3002 3002 3001 3004 3006 3004 3004 3004 3003 3002 3002 3002 3006 3008 3010 3013 3015 3017 3019 3021 3024 3026 3028 3031 3033 3036 3040 3044
3058 3056 3055 3053 3052 3050 3049 3048 3047 3045 3043 3041 3040 3038 3035 3032 3029 3027 3023 3019 3017 3014 3012 3010 3007 3005 3004 3003 3001 2999 2998 2997 2996 2997 2997 2998 2998 2999 3000 3001 3000 3001 3002 3002 3001 3000 3001 3000 3000 2999 2996 2994 2995 2999 3001 3002 3001 3000 3000 3002 3004 3002 3001 3005 3005 3003 3004 3004 3004 3003 3001 3001 3005 3008 3009 3012 3013 3016 3018 3020 3022 3024 3027 3029 3031 3034 3039 3043
3058 3056 3055 3053 3052 3050 3049 3048 3047 3044 3043 3042 3040 3038 3036 3033 3030 3027 3025 3021 3018 3015 3012 3010 3009 3006 3004 3003 3001 3000 3000 2998 2997 2998 2998 2998 2999 3000 3001 3002 3002 3002 3003 3002 3002 3001 3002 3003 3002 3001 2998 2995 2995 2998 3001 3002 3002 3001 2999 3001 3003 3003 3004 3005 3004 3003 3005 3004 3004 3003 3001 3001 3005 3009 3011 3012 3013 3016 3017 3018 3021 3024 3026 3028 3031 3033 3038 3041
3057 3055 3054 3053 3052 3050 3049 3048 3046 3044 3042 3042 3040 3037 3035 3033 3031 3027 3025 3023 3020 3017 3014 3012 3010 3008 3005 3004 3003 3001 3001 3000 2999 2999 2998 2999 3000 3000 3002 3003 3003 3003 3003 3003 3002 3002 3003 3004 3003 3002 3000 2996 2995 2998 3000 3001 3002 3001 2998 2998 3001 3004 3005 3005 3003 3004 3006 3005 3004 3003 3001 3001 3004 3007 3010 3011 3012 3015 3016 3017 3020 3023 3026 3029 3032 3034 3038 3041
3058 3055 3053 3052 3051 3049 3048 3047 3045 3043 3042 3041 3039 3037 3035 3033 3031 3028 3025 3022 3021 3018 3016 3013 3011 3009 3007 3005 3004 3003 3001 3000 3000 3000 2999 2999 3000 3001 3002 3003 3004 3004 3003 3003 3003 3003 3003 3003 3002 3003 3001 2998 2997 2998 2999 3002 3003 3000 2997 2998 3001 3004 3005 3005 3005 3006 3006 3006 3006 3004 3002 3003 3005 3007 3009 3011 3012 3015 3016 3017 3020 3022 3026 3029 3032 3035 3038 3041